Kezdőlap
METAR-TAF:

METAR-TAF

Repülőterek :

Prairie du Chien Municipal Airport

Prairie du Chien, Wisconsin, Amerikai Egyesült Államok

földrajzi szélesség: 43-01-19N, földrajzi hosszúság: 091-07-29W, magasság: 201 m

Jelenlegi meteorológiai megfigyelések

A jelentés 22 perccel ezelõtt készült, 17:15 UTC
Délkeleti szél 7 kt
Hőmérséklet 28°C
Páratartalom 51%
Légköri nyomás 1019 hPa
Látótávolság: 16.1 km
Szakadozott felhőzet 3600 lábon

METAR: KPDC 131715Z AUTO 13007KT 10SM BKN036 28/17 A3009 RMK AO2 T02760171

Idő: 12:37 (17:37 UTC)


TAF: hiányzik

Meteorológiai megfigyelések és előrejelzések több, mint 4000 repülőtéren (METAR és TAF jelentéseket).

A térképen piros és sárga pontok jelzik az elérhető meteorológiai állomásokat.

Mozgassa az egeret a pont fölött, hogy megjelenjen az állomás neve.

Azután kattintson az időjárási megfigyelések és előrejelzések megtekintéséhez.

A térkép megváltoztatása: kattintson a fekete keresztel jelölt zöld gombra ráközelítéshez, a vonallal jelölt zöld gombra távolításhoz, vagy a zöld nyilakra a szomszédos térképek eléréséhez.


METAR-TAF: